{"data":{"norad_id":56530,"epoch":"2026-05-25T04:38:40.635168Z","epoch_age_seconds":72411,"freshness":"FRESH","line1":"1 56530U 23065AD  26145.19352587  .00000860  00000+0  40781-4 0  9990","line2":"2 56530  43.0037 114.9322 0001108 263.0517  97.0209 15.27578411168591","mean_motion":15.27578411,"eccentricity":0.0001108,"inclination_deg":43.0037,"raan_deg":114.9322,"arg_perigee_deg":263.0517,"mean_anomaly_deg":97.0209,"bstar":4.0781e-5,"rev_number":16859,"period_min":94.266846770722,"perigee_km":482.29363413479,"apogee_km":483.81407402805,"semimajor_km":6861.1908540814,"source":"CELESTRAK","updated_at":"2026-05-25T13:38:18.111880Z"}}